[[{"header":{"parameterUnit":"m.s-1","parameterCategory":1,"la1":30.2991,"la2":30.254,"lo1":-89.0895,"lo2":-89.0444,"dy":0.0017,"dx":0.0017,"nx":28,"ny":28,"refTime":"2025-02-11T03:00:00:Z","depth":0,"parameterNumber":2,"parameterNumberName":"U-component_of_WINDS"},"data":[0,0,0,0,0,0,0,0,0,0,0,0,0,0,0,0,0,0,0,0,0,0,0,0,0,0,0,0,0,0,0,0,0,0,0,0,0,0,0,0,0,0,0,0,0,0,0,0,0,0,0,0,0,0,0,0,0,0,-1.3593,-1.3593,0,-1.3531,-1.353,-1.3529,-1.3487,-1.3486,-1.3486,-1.3486,-1.3421,-1.342,-1.3418,0,0,0,0,0,0,0,0,0,0,0,0,0,-1.3672,-1.3671,-1.3593,-1.3593,-1.3592,-1.3531,-1.353,-1.3529,-1.3487,-1.3486,-1.3486,-1.3486,-1.3422,-1.342,-1.3418,0,0,0,0,0,0,0,0,0,0,0,0,0,-1.3627,-1.3671,-1.3594,-1.3563,-1.356,-1.3531,-1.353,-1.3529,-1.3487,-1.3486,-1.3486,-1.3486,-1.3422,-1.342,-1.3418,-1.3414,0,0,-1.3411,-1.3411,0,0,0,0,0,0,0,0,-1.3629,-1.3624,-1.3569,-1.3565,-1.3562,-1.3516,-1.3534,-1.349,-1.3487,-1.3515,-1.3486,-1.3485,-1.3453,-1.3448,-1.3438,-1.3411,-1.3408,-1.3411,-1.341,-1.3409,-1.3408,0,0,0,0,0,0,0,-1.3632,-1.3626,-1.3569,-1.3568,-1.3564,-1.3551,-1.3545,-1.3525,-1.3487,-1.3512,-1.3509,-1.3502,-1.3451,-1.344,-1.3436,-1.3407,-1.3411,-1.3409,-1.3408,-1.3407,-1.3368,-1.3368,0,0,0,0,0,0,-1.3641,-1.3629,-1.3571,-1.3567,-1.3595,-1.355,-1.3543,-1.3531,-1.3487,-1.348,-1.3503,-1.35,-1.3444,-1.3438,-1.3433,-1.3422,-1.3409,-1.3407,-1.3406,-1.3368,-1.3368,-1.3368,0,0,0,0,0,0,-1.3643,-1.3636,-1.3573,-1.3597,-1.3588,-1.355,-1.3537,-1.353,-1.3519,-1.348,-1.3473,-1.3498,-1.3443,-1.3436,-1.3418,-1.342,-1.3406,-1.3404,-1.3368,-1.3368,-1.3368,-1.3402,0,0,0,0,0,0,-1.3645,-1.3637,-1.3636,-1.3597,-1.3587,-1.356,-1.3537,-1.3529,-1.3515,-1.3512,-1.3474,-1.3467,-1.3442,-1.3421,-1.3416,-1.3416,-1.3402,-1.3367,-1.3368,-1.3368,-1.3401,-1.3404,-1.3406,0,0,0,0,0,-1.3648,-1.3649,-1.3637,-1.363,-1.3586,-1.356,-1.3554,-1.3526,-1.3516,-1.3514,-1.3488,-1.3469,-1.342,-1.342,-1.3413,-1.3413,-1.3367,-1.3368,-1.3368,-1.34,-1.3403,-1.3406,0,0,0,0,0,0,-1.3691,-1.3644,-1.3629,-1.3618,-1.3593,-1.3553,-1.355,-1.3531,-1.3509,-1.3506,-1.3471,-1.3463,-1.3447,-1.3428,-1.3429,-1.3404,-1.3391,-1.339,-1.3417,-1.342,-1.3423,-1.3428,-1.3401,0,0,0,0,0,-1.3699,-1.3683,-1.3643,-1.3637,-1.3625,-1.359,-1.3578,-1.3557,-1.353,-1.3519,-1.3493,-1.3466,-1.3444,-1.3432,-1.341,-1.3397,-1.3387,-1.3394,-1.3397,-1.3399,-1.3399,-1.3387,-1.3388,-1.337,-1.337,-1.337,0,0,-1.3716,-1.3688,-1.3681,-1.3644,-1.3623,-1.3606,-1.3581,-1.3565,-1.3551,-1.3517,-1.3497,-1.3476,-1.3444,-1.3428,-1.3419,-1.3411,-1.3401,-1.34,-1.3402,-1.34,-1.3387,-1.3389,-1.3391,-1.3371,-1.3371,-1.337,0,0,-1.3737,-1.3716,-1.3706,-1.3684,-1.3651,-1.3627,-1.3624,-1.3586,-1.357,-1.355,-1.3522,-1.3504,-1.3469,-1.3446,-1.343,-1.3437,-1.3417,-1.343,-1.3445,-1.3433,-1.3435,-1.3436,-1.3436,-1.3436,-1.343,-1.343,-1.343,0,-1.3762,-1.3736,-1.3704,-1.3688,-1.3672,-1.3638,-1.3627,-1.3607,-1.3569,-1.3557,-1.3549,-1.35,-1.3477,-1.3452,-1.3453,-1.3442,-1.3436,-1.3435,-1.3437,-1.3438,-1.3438,-1.3438,-1.3438,-1.3432,-1.3432,-1.3432,-1.3432,0,-1.3766,-1.3748,-1.3745,-1.3707,-1.369,-1.3677,-1.3641,-1.3627,-1.3606,-1.3582,-1.3559,-1.3529,-1.3498,-1.3491,-1.3472,-1.3462,-1.3458,-1.3444,-1.343,-1.3442,-1.3441,-1.3441,-1.3435,-1.3434,-1.3433,-1.3433,0,0,-1.3816,-1.3757,-1.3757,-1.3737,-1.3696,-1.3681,-1.3664,-1.3633,-1.3621,-1.3594,-1.3577,-1.3546,-1.3531,-1.3512,-1.3489,-1.348,-1.3483,-1.3466,-1.3465,-1.3468,-1.3466,-1.3477,-1.3477,-1.3469,-1.3469,-1.3469,-1.3468,0,-1.3829,-1.3799,-1.3767,-1.3747,-1.3728,-1.3693,-1.3678,-1.365,-1.3625,-1.3604,-1.3577,-1.3554,-1.3538,-1.3525,-1.3514,-1.3485,-1.3482,-1.3485,-1.3451,-1.3451,-1.346,-1.3477,-1.3488,-1.349,-1.3468,-1.3468,-1.3468,0,-1.3842,-1.3816,-1.3793,-1.3749,-1.374,-1.3728,-1.3694,-1.3675,-1.3641,-1.3624,-1.36,-1.3575,-1.3553,-1.3541,-1.3508,-1.3511,-1.3494,-1.3478,-1.3477,-1.3472,-1.346,-1.3471,-1.349,-1.3489,-1.3467,-1.3467,-1.3467,0,-1.3878,-1.3836,-1.3816,-1.3801,-1.375,-1.3741,-1.372,-1.3685,-1.3667,-1.3637,-1.3625,-1.3594,-1.3576,-1.3551,-1.3517,-1.3512,-1.3487,-1.3473,-1.347,-1.347,-1.3467,-1.3467,-1.3482,-1.3458,-1.3458,-1.3458,-1.3458,0,-1.3896,-1.3883,-1.383,-1.3818,-1.3801,-1.3764,-1.3747,-1.3722,-1.3691,-1.3671,-1.3639,-1.3621,-1.3578,-1.3553,-1.3526,-1.3501,-1.3494,-1.3478,-1.3471,-1.348,-1.3482,-1.3469,-1.3468,-1.3458,-1.3458,-1.3458,-1.3458,0,-1.3933,-1.3898,-1.3873,-1.3826,-1.3813,-1.3803,-1.3761,-1.3747,-1.3719,-1.3694,-1.3686,-1.3642,-1.3612,-1.3575,-1.3533,-1.3515,-1.3491,-1.3481,-1.3503,-1.3499,-1.3497,-1.3497,-1.3503,-1.3501,-1.348,-1.3481,-1.3481,0,-1.3947,-1.3935,-1.3886,-1.387,-1.3849,-1.3825,-1.3805,-1.3767,-1.3748,-1.3705,-1.3694,-1.3661,-1.3633,-1.3585,-1.3549,-1.3515,-1.3503,-1.3507,-1.3498,-1.3506,-1.35,-1.3501,-1.3498,-1.351,-1.351,-1.3511,-1.3511,0,-1.3973,-1.3955,-1.3929,-1.3896,-1.3873,-1.3845,-1.3816,-1.3804,-1.3759,-1.3738,-1.3706,-1.3684,-1.3639,-1.3605,-1.3566,-1.3542,-1.3518,-1.3514,-1.3511,-1.352,-1.3532,-1.3523,-1.3508,-1.3514,-1.3514,-1.3514,-1.3513,-1.3513,-1.3998,-1.3985,-1.3947,-1.3917,-1.389,-1.3862,-1.3845,-1.3814,-1.3786,-1.3747,-1.3725,-1.3693,-1.3654,-1.3599,-1.3575,-1.3547,-1.3539,-1.3536,-1.3535,-1.3534,-1.3536,-1.3537,-1.354,-1.354,-1.354,-1.354,-1.354,0,-1.4021,-1.3994,-1.3967,-1.3926,-1.3902,-1.388,-1.3845,-1.3826,-1.3798,-1.3764,-1.3735,-1.3696,-1.3662,-1.3622,-1.3584,-1.357,-1.3557,-1.3561,-1.3561,-1.3555,-1.3546,-1.3552,-1.3571,-1.3571,-1.3571,-1.3571,-1.3571,-1.3571,-1.403,-1.4006,-1.3983,-1.3943,-1.3915,-1.3883,-1.3865,-1.3837,-1.3809,-1.3767,-1.3738,-1.3712,-1.3674,-1.3633,-1.3599,-1.3588,-1.3575,-1.3581,-1.3567,-1.3559,-1.3556,-1.3554,-1.3558,-1.3579,-1.3579,-1.3577,-1.3577,-1.3577]},{"header":{"parameterUnit":"m.s-1","parameterCategory":1,"la1":30.2991,"la2":30.254,"lo1":-89.0895,"lo2":-89.0444,"dy":0.0017,"dx":0.0017,"nx":28,"ny":28,"refTime":"2025-02-11T03:00:00:Z","depth":0,"parameterNumber":3,"parameterNumberName":"V-component_of_WINDS"},"data":[0,0,0,0,0,0,0,0,0,0,0,0,0,0,0,0,0,0,0,0,0,0,0,0,0,0,0,0,0,0,0,0,0,0,0,0,0,0,0,0,0,0,0,0,0,0,0,0,0,0,0,0,0,0,0,0,0,0,1.1929,1.1933,0,1.2297,1.2301,1.2305,1.2409,1.2407,1.2405,1.2403,1.2806,1.2819,1.2831,0,0,0,0,0,0,0,0,0,0,0,0,0,1.1344,1.1355,1.1929,1.1933,1.1938,1.2296,1.2301,1.2307,1.241,1.2407,1.2405,1.2402,1.2802,1.2817,1.2832,0,0,0,0,0,0,0,0,0,0,0,0,0,1.1644,1.1358,1.1928,1.2032,1.2045,1.2295,1.2302,1.2308,1.241,1.2407,1.2404,1.2401,1.2797,1.2816,1.2834,1.3016,0,0,1.2893,1.2901,0,0,0,0,0,0,0,0,1.1627,1.1666,1.2012,1.2025,1.204,1.2303,1.2243,1.2546,1.2411,1.2272,1.2403,1.2399,1.2643,1.2675,1.2752,1.3035,1.3052,1.2894,1.2906,1.2914,1.2919,0,0,0,0,0,0,0,1.1606,1.1651,1.2075,1.2017,1.2035,1.207,1.2109,1.2301,1.2472,1.2284,1.2293,1.2333,1.2651,1.2733,1.2762,1.3058,1.2894,1.2911,1.2923,1.293,1.3518,1.3522,0,0,0,0,0,0,1.1564,1.1633,1.2064,1.2086,1.1821,1.2083,1.2127,1.2223,1.247,1.2504,1.2336,1.2337,1.2702,1.274,1.2776,1.301,1.2914,1.2932,1.2943,1.3514,1.3519,1.3523,0,0,0,0,0,0,1.1551,1.1601,1.2049,1.1862,1.1921,1.2096,1.2203,1.2232,1.2314,1.2508,1.2542,1.2386,1.2701,1.275,1.2956,1.3025,1.294,1.2958,1.3509,1.3515,1.3521,1.3474,0,0,0,0,0,0,1.1534,1.1596,1.1659,1.1862,1.1931,1.2212,1.2207,1.2241,1.2343,1.2348,1.2565,1.2598,1.2702,1.2926,1.2974,1.305,1.2973,1.3503,1.3512,1.3519,1.3471,1.3478,1.3485,0,0,0,0,0,1.1512,1.1636,1.1662,1.1713,1.2012,1.2216,1.2256,1.2365,1.2348,1.2419,1.2545,1.2592,1.3009,1.2946,1.3002,1.3084,1.35,1.3509,1.3519,1.3467,1.3477,1.3485,0,0,0,0,0,0,1.1444,1.1664,1.1695,1.1886,1.203,1.2232,1.2324,1.2371,1.253,1.2529,1.2667,1.2715,1.2913,1.302,1.2946,1.3277,1.3257,1.3278,1.3199,1.321,1.3217,1.3188,1.2988,0,0,0,0,0,1.1449,1.1587,1.1776,1.1927,1.1997,1.2147,1.224,1.2312,1.2471,1.2535,1.2676,1.2837,1.3006,1.3113,1.3279,1.3487,1.3541,1.3572,1.3578,1.3583,1.3601,1.3727,1.3745,1.3554,1.3554,1.3554,0,0,1.1465,1.1603,1.1683,1.1916,1.2037,1.2186,1.2199,1.2355,1.247,1.2562,1.2763,1.2873,1.3063,1.3271,1.3371,1.3367,1.3666,1.3595,1.3598,1.3613,1.3738,1.3756,1.3772,1.3561,1.356,1.3558,0,0,1.157,1.1685,1.1825,1.1944,1.2124,1.2225,1.2258,1.2455,1.2529,1.2731,1.2805,1.295,1.3234,1.3368,1.3473,1.3634,1.3686,1.3685,1.3723,1.3844,1.386,1.3874,1.3937,1.3957,1.3701,1.3701,1.3701,0,1.157,1.1787,1.1893,1.2046,1.2151,1.2233,1.2382,1.2497,1.2725,1.28,1.279,1.3152,1.3285,1.3529,1.3568,1.3649,1.37,1.3661,1.3847,1.3862,1.3877,1.394,1.3963,1.37,1.37,1.37,1.37,0,1.1781,1.1933,1.2026,1.2236,1.2352,1.2502,1.264,1.2746,1.2809,1.2914,1.3125,1.3288,1.3489,1.3553,1.3619,1.381,1.3802,1.3818,1.3801,1.3892,1.3954,1.3978,1.3698,1.3699,1.3699,1.3699,0,0,1.1852,1.2118,1.2152,1.2251,1.2457,1.2582,1.2741,1.293,1.3022,1.3179,1.3322,1.3563,1.3579,1.3699,1.3782,1.3887,1.4013,1.3892,1.3899,1.3913,1.4242,1.4231,1.4256,1.4047,1.4052,1.4056,1.4228,0,1.1986,1.2261,1.2364,1.2595,1.2741,1.2825,1.2965,1.3113,1.3216,1.3364,1.3483,1.3653,1.3659,1.3732,1.384,1.3973,1.4081,1.3963,1.4192,1.4198,1.4143,1.4287,1.4275,1.4428,1.4252,1.4256,1.4259,0,1.2178,1.2329,1.2572,1.2765,1.2831,1.2953,1.3139,1.3275,1.3449,1.3519,1.3652,1.3729,1.391,1.388,1.4137,1.4054,1.4155,1.4236,1.4245,1.4273,1.4235,1.4324,1.4479,1.4504,1.4297,1.4294,1.4291,0,1.221,1.2476,1.2657,1.2739,1.2967,1.3053,1.3154,1.3323,1.3433,1.36,1.3674,1.3862,1.3966,1.4115,1.4245,1.421,1.4493,1.4472,1.4564,1.4561,1.4621,1.4616,1.4799,1.468,1.4679,1.4679,1.4678,0,1.2351,1.2498,1.2675,1.2786,1.2957,1.3078,1.3247,1.3356,1.3507,1.3649,1.3736,1.387,1.4031,1.4189,1.4293,1.4495,1.4541,1.4609,1.4636,1.4603,1.4595,1.4673,1.4667,1.4685,1.4684,1.4683,1.4682,0,1.2416,1.2539,1.2743,1.2941,1.2996,1.3113,1.3289,1.3407,1.3515,1.3694,1.3744,1.3918,1.4109,1.4251,1.4502,1.4572,1.4788,1.4814,1.4726,1.4741,1.4826,1.4817,1.5068,1.5111,1.4958,1.4959,1.496,0,1.2498,1.2612,1.2823,1.2919,1.3018,1.3174,1.3285,1.3413,1.3527,1.3736,1.3831,1.4026,1.4189,1.4493,1.4648,1.4842,1.4876,1.4951,1.4907,1.4872,1.4884,1.4876,1.4892,1.4958,1.4959,1.4959,1.496,0,1.2634,1.2689,1.284,1.3016,1.3144,1.329,1.3439,1.3517,1.3673,1.3799,1.399,1.4116,1.437,1.4566,1.4776,1.4893,1.4957,1.4972,1.5005,1.4974,1.492,1.4956,1.4747,1.4967,1.4966,1.4966,1.4965,1.4965,1.2714,1.2821,1.2985,1.3154,1.3278,1.3416,1.3537,1.3658,1.3817,1.4027,1.4096,1.4297,1.4478,1.4765,1.4884,1.505,1.5051,1.5096,1.5109,1.5119,1.5119,1.489,1.5089,1.5089,1.5089,1.5089,1.5089,0,1.2857,1.2967,1.312,1.3323,1.3458,1.3496,1.3665,1.3779,1.395,1.4109,1.4266,1.4492,1.4684,1.4854,1.5057,1.5159,1.5194,1.5208,1.5204,1.5232,1.5104,1.5058,1.5177,1.5177,1.5177,1.5177,1.5177,1.5177,1.2948,1.3132,1.3209,1.3461,1.3574,1.3763,1.3857,1.3989,1.4116,1.436,1.4517,1.4624,1.4792,1.5008,1.519,1.5236,1.531,1.5318,1.5372,1.5251,1.524,1.523,1.5187,1.5332,1.5332,1.5487,1.5489,1.549]}]]